Find Local Weather

World > North America > United States > Illinois

Stonefort, Illinois Regional Weather

Lat: 37.62N, Lon: 88.71W
Wx Zone: ILZ086
Warning FLW WEATHER ALERT - (More Info. Click Here) Warning
Feedback
Expires:201806201400;;829502
ASUS43 KLOT 201308
RWRIL 

ILLINOIS REGIONAL WEATHER ROUNDUP
NATIONAL WEATHER SERVICE CHICAGO/ROMEOVILLE IL
800 AM CDT WED JUN 20 2018

NOTE: "FAIR" INDICATES FEW OR NO CLOUDS BELOW 12,000 FEET WITH NO
SIGNIFICANT WEATHER AND/OR OBSTRUCTIONS TO VISIBILITY.

* THESE STATIONS ARE NOT UNDER NWS QUALITY CONTROL. THEY ALSO MAY NOT
  REPORT WEATHER SUCH AS PRECIPITATION OR FOG.


ILZ064>066-069>071-074>076-080>082-084>086-088>090-092>094-201400-
SOUTH-CENTRAL ILLINOIS
  
CITY           SKY/WX    TMP DP  RH WIND       PRES   REMARKS
CARBONDALE     FAIR      78  68  71 W7        29.93R HX  80           
CAIRO*         FAIR      77  69  76 SW7       29.94S                  
EFFINGHAM*     PTSUNNY   73  69  87 SW5       29.92S                  
MARION         MOSUNNY   79  68  69 SW7       29.93F HX  81           
MT. VERNON     FAIR      79  71  76 SW7       29.91F HX  82           
CENTRALIA*     CLOUDY    75  73  94 SW5       29.90S                  
SALEM*         FAIR      75  72  89 SW5       29.90F                  
METROPOLIS*    FAIR      79  70  73 SW7       29.95S HX  82           
$$


SKY/WX - Weather  TMP - Temperature  DP - Dewpoint  RH - Relative Humidity
WIND - Wind Direction/Speed PRES - Barometric Pressure